Year,Month,Day,Hour,Minute,Value (Times are PST for temperature in C)
2016,04,09,00,00,10.00
2016,04,09,00,01,10.00
2016,04,09,00,02,10.00
2016,04,09,00,03,10.00
2016,04,09,00,04,10.00
2016,04,09,00,05,10.00
2016,04,09,00,06,9.90
2016,04,09,00,07,9.90
2016,04,09,00,08,9.90
2016,04,09,00,09,9.80
2016,04,09,00,10,9.80
2016,04,09,00,11,9.80
2016,04,09,00,12,9.70
2016,04,09,00,13,9.70
2016,04,09,00,14,9.70
2016,04,09,00,15,9.70
2016,04,09,00,16,9.70
2016,04,09,00,17,9.70
2016,04,09,00,18,9.80
2016,04,09,00,19,9.80
2016,04,09,00,20,9.80
2016,04,09,00,21,9.80
2016,04,09,00,22,9.90
2016,04,09,00,23,9.90
2016,04,09,00,24,9.90
2016,04,09,00,25,9.90
2016,04,09,00,26,9.90
2016,04,09,00,27,9.90
2016,04,09,00,28,9.90
2016,04,09,00,29,9.90
2016,04,09,00,30,9.90
2016,04,09,00,31,9.90
2016,04,09,00,32,9.90
2016,04,09,00,33,9.90
2016,04,09,00,34,9.80
2016,04,09,00,35,9.80
2016,04,09,00,36,9.80
2016,04,09,00,37,9.80
2016,04,09,00,38,9.80
2016,04,09,00,39,9.80
2016,04,09,00,40,9.70
2016,04,09,00,41,9.70
2016,04,09,00,42,9.60
2016,04,09,00,43,9.60
2016,04,09,00,44,9.60
2016,04,09,00,45,9.50
2016,04,09,00,46,9.50
2016,04,09,00,47,9.40
2016,04,09,00,48,9.40
2016,04,09,00,49,9.40
2016,04,09,00,50,9.30
2016,04,09,00,51,9.30
2016,04,09,00,52,9.30
2016,04,09,00,53,9.30
2016,04,09,00,54,9.30
2016,04,09,00,55,9.30
2016,04,09,00,56,9.30
2016,04,09,00,57,9.30
2016,04,09,00,58,9.20
2016,04,09,00,59,9.20
2016,04,09,01,00,9.20
2016,04,09,01,01,9.20
2016,04,09,01,02,9.20
2016,04,09,01,03,9.20
2016,04,09,01,04,9.20
2016,04,09,01,05,9.20
2016,04,09,01,06,9.20
2016,04,09,01,07,9.10
2016,04,09,01,08,9.10
2016,04,09,01,09,9.10
2016,04,09,01,10,9.10
2016,04,09,01,11,9.10
2016,04,09,01,12,9.10
2016,04,09,01,13,9.10
2016,04,09,01,14,9.10
2016,04,09,01,15,9.10
2016,04,09,01,16,9.10
2016,04,09,01,17,9.10
2016,04,09,01,18,9.00
2016,04,09,01,19,9.00
2016,04,09,01,20,9.00
2016,04,09,01,21,9.00
2016,04,09,01,22,9.00
2016,04,09,01,23,8.90
2016,04,09,01,24,8.90
2016,04,09,01,25,8.90
2016,04,09,01,26,8.90
2016,04,09,01,27,8.90
2016,04,09,01,28,8.80
2016,04,09,01,29,8.80
2016,04,09,01,30,8.80
2016,04,09,01,31,8.80
2016,04,09,01,32,8.80
2016,04,09,01,33,8.80
2016,04,09,01,34,8.80
2016,04,09,01,35,8.80
2016,04,09,01,36,8.90
2016,04,09,01,37,8.90
2016,04,09,01,38,8.90
2016,04,09,01,39,8.90
2016,04,09,01,40,8.90
2016,04,09,01,41,8.90
2016,04,09,01,42,9.00
2016,04,09,01,43,9.00
2016,04,09,01,44,9.00
2016,04,09,01,45,9.00
2016,04,09,01,46,8.90
2016,04,09,01,47,8.90
2016,04,09,01,48,8.90
2016,04,09,01,49,8.80
2016,04,09,01,50,8.80
2016,04,09,01,51,8.70
2016,04,09,01,52,8.70
2016,04,09,01,53,8.60
2016,04,09,01,54,8.50
2016,04,09,01,55,8.50
2016,04,09,01,56,8.40
2016,04,09,01,57,8.40
2016,04,09,01,58,8.40
2016,04,09,01,59,8.40
2016,04,09,02,00,8.40
2016,04,09,02,01,8.30
2016,04,09,02,02,8.30
2016,04,09,02,03,8.30
2016,04,09,02,04,8.30
2016,04,09,02,05,8.30
2016,04,09,02,06,8.40
2016,04,09,02,07,8.40
2016,04,09,02,08,8.50
2016,04,09,02,09,8.60
2016,04,09,02,10,8.60
2016,04,09,02,11,8.70
2016,04,09,02,12,8.70
2016,04,09,02,13,8.80
2016,04,09,02,14,8.80
2016,04,09,02,15,8.90
2016,04,09,02,16,9.00
2016,04,09,02,17,9.10
2016,04,09,02,18,9.20
2016,04,09,02,19,9.30
2016,04,09,02,20,9.40
2016,04,09,02,21,9.40
2016,04,09,02,22,9.50
2016,04,09,02,23,9.60
2016,04,09,02,24,9.60
2016,04,09,02,25,9.70
2016,04,09,02,26,9.80
2016,04,09,02,27,9.80
2016,04,09,02,28,9.90
2016,04,09,02,29,10.00
2016,04,09,02,30,10.10
2016,04,09,02,31,10.10
2016,04,09,02,32,10.10
2016,04,09,02,33,10.20
2016,04,09,02,34,10.20
2016,04,09,02,35,10.20
2016,04,09,02,36,10.20
2016,04,09,02,37,10.30
2016,04,09,02,38,10.20
2016,04,09,02,39,10.20
2016,04,09,02,40,10.20
2016,04,09,02,41,10.20
2016,04,09,02,42,10.20
2016,04,09,02,43,10.20
2016,04,09,02,44,10.20
2016,04,09,02,45,10.20
2016,04,09,02,46,10.20
2016,04,09,02,47,10.20
2016,04,09,02,48,10.20
2016,04,09,02,49,10.10
2016,04,09,02,50,10.10
2016,04,09,02,51,10.10
2016,04,09,02,52,10.10
2016,04,09,02,53,10.10
2016,04,09,02,54,10.10
2016,04,09,02,55,10.00
2016,04,09,02,56,10.00
2016,04,09,02,57,10.00
2016,04,09,02,58,10.00
2016,04,09,02,59,10.00
2016,04,09,03,00,10.00
2016,04,09,03,01,10.00
2016,04,09,03,02,10.00
2016,04,09,03,03,10.00
2016,04,09,03,04,10.00
2016,04,09,03,05,10.00
2016,04,09,03,06,10.00
2016,04,09,03,07,9.90
2016,04,09,03,08,9.90
2016,04,09,03,09,9.90
2016,04,09,03,10,9.90
2016,04,09,03,11,9.90
2016,04,09,03,12,9.90
2016,04,09,03,13,9.90
2016,04,09,03,14,9.90
2016,04,09,03,15,9.90
2016,04,09,03,16,9.80
2016,04,09,03,17,9.80
2016,04,09,03,18,9.80
2016,04,09,03,19,9.80
2016,04,09,03,20,9.80
2016,04,09,03,21,9.80
2016,04,09,03,22,9.70
2016,04,09,03,23,9.70
2016,04,09,03,24,9.70
2016,04,09,03,25,9.70
2016,04,09,03,26,9.70
2016,04,09,03,27,9.70
2016,04,09,03,28,9.60
2016,04,09,03,29,9.60
2016,04,09,03,30,9.60
2016,04,09,03,31,9.60
2016,04,09,03,32,9.60
2016,04,09,03,33,9.50
2016,04,09,03,34,9.50
2016,04,09,03,35,9.50
2016,04,09,03,36,9.50
2016,04,09,03,37,9.50
2016,04,09,03,38,9.50
2016,04,09,03,39,9.40
2016,04,09,03,40,9.40
2016,04,09,03,41,9.40
2016,04,09,03,42,9.40
2016,04,09,03,43,9.30
2016,04,09,03,44,9.30
2016,04,09,03,45,9.30
2016,04,09,03,46,9.30
2016,04,09,03,47,9.20
2016,04,09,03,48,9.20
2016,04,09,03,49,9.10
2016,04,09,03,50,9.10
2016,04,09,03,51,9.00
2016,04,09,03,52,8.90
2016,04,09,03,53,8.90
2016,04,09,03,54,8.90
2016,04,09,03,55,8.90
2016,04,09,03,56,9.00
2016,04,09,03,57,9.00
2016,04,09,03,58,9.00
2016,04,09,03,59,9.10
2016,04,09,04,00,9.10
2016,04,09,04,01,9.10
2016,04,09,04,02,9.10
2016,04,09,04,03,9.10
2016,04,09,04,04,9.10
2016,04,09,04,05,9.10
2016,04,09,04,06,9.00
2016,04,09,04,07,9.00
2016,04,09,04,08,9.00
2016,04,09,04,09,8.90
2016,04,09,04,10,8.90
2016,04,09,04,11,8.80
2016,04,09,04,12,8.70
2016,04,09,04,13,8.70
2016,04,09,04,14,8.60
2016,04,09,04,15,8.50
2016,04,09,04,16,8.50
2016,04,09,04,17,8.40
2016,04,09,04,18,8.30
2016,04,09,04,19,8.30
2016,04,09,04,20,8.20
2016,04,09,04,21,8.20
2016,04,09,04,22,8.10
2016,04,09,04,23,8.10
2016,04,09,04,24,8.00
2016,04,09,04,25,8.00
2016,04,09,04,26,7.90
2016,04,09,04,27,8.00
2016,04,09,04,28,8.00
2016,04,09,04,29,8.00
2016,04,09,04,30,8.10
2016,04,09,04,31,8.10
2016,04,09,04,32,8.10
2016,04,09,04,33,8.20
2016,04,09,04,34,8.20
2016,04,09,04,35,8.20
2016,04,09,04,36,8.20
2016,04,09,04,37,8.20
2016,04,09,04,38,8.20
2016,04,09,04,39,8.20
2016,04,09,04,40,8.20
2016,04,09,04,41,8.20
2016,04,09,04,42,8.20
2016,04,09,04,43,8.20
2016,04,09,04,44,8.30
2016,04,09,04,45,8.30
2016,04,09,04,46,8.30
2016,04,09,04,47,8.30
2016,04,09,04,48,8.40
2016,04,09,04,49,8.40
2016,04,09,04,50,8.40
2016,04,09,04,51,8.40
2016,04,09,04,52,8.50
2016,04,09,04,53,8.50
2016,04,09,04,54,8.50
2016,04,09,04,55,8.60
2016,04,09,04,56,8.60
2016,04,09,04,57,8.60
2016,04,09,04,58,8.60
2016,04,09,04,59,8.70
2016,04,09,05,00,8.70
2016,04,09,05,01,8.70
2016,04,09,05,02,8.70
2016,04,09,05,03,8.70
2016,04,09,05,04,8.70
2016,04,09,05,05,8.70
2016,04,09,05,06,8.70
2016,04,09,05,07,8.70
2016,04,09,05,08,8.70
2016,04,09,05,09,8.70
2016,04,09,05,10,8.70
2016,04,09,05,11,8.70
2016,04,09,05,12,8.70
2016,04,09,05,13,8.70
2016,04,09,05,14,8.80
2016,04,09,05,15,8.80
2016,04,09,05,16,8.80
2016,04,09,05,17,8.70
2016,04,09,05,18,8.70
2016,04,09,05,19,8.70
2016,04,09,05,20,8.70
2016,04,09,05,21,8.60
2016,04,09,05,22,8.60
2016,04,09,05,23,8.50
2016,04,09,05,24,8.50
2016,04,09,05,25,8.40
2016,04,09,05,26,8.30
2016,04,09,05,27,8.20
2016,04,09,05,28,8.10
2016,04,09,05,29,8.00
2016,04,09,05,30,7.90
2016,04,09,05,31,7.80
2016,04,09,05,32,7.80
2016,04,09,05,33,7.70
2016,04,09,05,34,7.70
2016,04,09,05,35,7.60
2016,04,09,05,36,7.60
2016,04,09,05,37,7.50
2016,04,09,05,38,7.50
2016,04,09,05,39,7.40
2016,04,09,05,40,7.40
2016,04,09,05,41,7.40
2016,04,09,05,42,7.30
2016,04,09,05,43,7.30
2016,04,09,05,44,7.20
2016,04,09,05,45,7.20
2016,04,09,05,46,7.20
2016,04,09,05,47,7.10
2016,04,09,05,48,7.10
2016,04,09,05,49,7.10
2016,04,09,05,50,7.10
2016,04,09,05,51,7.10
2016,04,09,05,52,7.10
2016,04,09,05,53,7.10
2016,04,09,05,54,7.10
2016,04,09,05,55,7.10
2016,04,09,05,56,7.10
2016,04,09,05,57,7.00
2016,04,09,05,58,7.00
2016,04,09,05,59,6.90
2016,04,09,06,00,6.90
2016,04,09,06,01,6.90
2016,04,09,06,02,6.80
2016,04,09,06,03,6.80
2016,04,09,06,04,6.80
2016,04,09,06,05,6.80
2016,04,09,06,06,6.80
2016,04,09,06,07,6.80
2016,04,09,06,08,6.80
2016,04,09,06,09,6.90
2016,04,09,06,10,6.80
2016,04,09,06,11,6.90
2016,04,09,06,12,6.90
2016,04,09,06,13,6.90
2016,04,09,06,14,6.90
2016,04,09,06,15,6.90
2016,04,09,06,16,6.80
2016,04,09,06,17,6.80
2016,04,09,06,18,6.80
2016,04,09,06,19,6.80
2016,04,09,06,20,6.80
2016,04,09,06,21,6.70
2016,04,09,06,22,6.70
2016,04,09,06,23,6.70
2016,04,09,06,24,6.70
2016,04,09,06,25,6.70
2016,04,09,06,26,6.70
2016,04,09,06,27,6.70
2016,04,09,06,28,6.70
2016,04,09,06,29,6.70
2016,04,09,06,30,6.70
2016,04,09,06,31,6.70
2016,04,09,06,32,6.70
2016,04,09,06,33,6.60
2016,04,09,06,34,6.60
2016,04,09,06,35,6.60
2016,04,09,06,36,6.60
2016,04,09,06,37,6.60
2016,04,09,06,38,6.60
2016,04,09,06,39,6.60
2016,04,09,06,40,6.60
2016,04,09,06,41,6.60
2016,04,09,06,42,6.60
2016,04,09,06,43,6.60
2016,04,09,06,44,6.60
2016,04,09,06,45,6.60
2016,04,09,06,46,6.60
2016,04,09,06,47,6.60
2016,04,09,06,48,6.60
2016,04,09,06,49,6.50
2016,04,09,06,50,6.50
2016,04,09,06,51,6.60
2016,04,09,06,52,6.60
2016,04,09,06,53,6.60
2016,04,09,06,54,6.60
2016,04,09,06,55,6.70
2016,04,09,06,56,6.70
2016,04,09,06,57,6.70
2016,04,09,06,58,6.80
2016,04,09,06,59,6.80
2016,04,09,07,00,6.80
2016,04,09,07,01,6.90
2016,04,09,07,02,6.90
2016,04,09,07,03,7.00
2016,04,09,07,04,7.00
2016,04,09,07,05,7.00
2016,04,09,07,06,7.10
2016,04,09,07,07,7.10
2016,04,09,07,08,7.20
2016,04,09,07,09,7.20
2016,04,09,07,10,7.20
2016,04,09,07,11,7.20
2016,04,09,07,12,7.30
2016,04,09,07,13,7.30
2016,04,09,07,14,7.30
2016,04,09,07,15,7.30
2016,04,09,07,16,7.40
2016,04,09,07,17,7.40
2016,04,09,07,18,7.40
2016,04,09,07,19,7.50
2016,04,09,07,20,7.50
2016,04,09,07,21,7.50
2016,04,09,07,22,7.50
2016,04,09,07,23,7.60
2016,04,09,07,24,7.60
2016,04,09,07,25,7.60
2016,04,09,07,26,7.70
2016,04,09,07,27,7.80
2016,04,09,07,28,7.80
2016,04,09,07,29,7.90
2016,04,09,07,30,8.00
2016,04,09,07,31,8.10
2016,04,09,07,32,8.20
2016,04,09,07,33,8.30
2016,04,09,07,34,8.40
2016,04,09,07,35,8.60
2016,04,09,07,36,8.70
2016,04,09,07,37,8.80
2016,04,09,07,38,8.80
2016,04,09,07,39,8.90
2016,04,09,07,40,9.00
2016,04,09,07,41,9.10
2016,04,09,07,42,9.20
2016,04,09,07,43,9.30
2016,04,09,07,44,9.30
2016,04,09,07,45,9.30
2016,04,09,07,46,9.40
2016,04,09,07,47,9.40
2016,04,09,07,48,9.50
2016,04,09,07,49,9.50
2016,04,09,07,50,9.50
2016,04,09,07,51,9.50
2016,04,09,07,52,9.60
2016,04,09,07,53,9.60
2016,04,09,07,54,9.60
2016,04,09,07,55,9.60
2016,04,09,07,56,9.60
2016,04,09,07,57,9.60
2016,04,09,07,58,9.60
2016,04,09,07,59,9.60
2016,04,09,08,00,9.60
2016,04,09,08,01,9.60
2016,04,09,08,02,9.60
2016,04,09,08,03,9.70
2016,04,09,08,04,9.70
2016,04,09,08,05,9.80
2016,04,09,08,06,9.80
2016,04,09,08,07,9.90
2016,04,09,08,08,9.90
2016,04,09,08,09,9.90
2016,04,09,08,10,9.80
2016,04,09,08,11,9.80
2016,04,09,08,12,9.80
2016,04,09,08,13,9.70
2016,04,09,08,14,9.70
2016,04,09,08,15,9.60
2016,04,09,08,16,9.60
2016,04,09,08,17,9.50
2016,04,09,08,18,9.50
2016,04,09,08,19,9.50
2016,04,09,08,20,9.40
2016,04,09,08,21,9.50
2016,04,09,08,22,9.50
2016,04,09,08,23,9.50
2016,04,09,08,24,9.60
2016,04,09,08,25,9.60
2016,04,09,08,26,9.70
2016,04,09,08,27,9.80
2016,04,09,08,28,9.90
2016,04,09,08,29,10.00
2016,04,09,08,30,10.00
2016,04,09,08,31,10.10
2016,04,09,08,32,10.20
2016,04,09,08,33,10.30
2016,04,09,08,34,10.50
2016,04,09,08,35,10.60
2016,04,09,08,36,10.60
2016,04,09,08,37,10.70
2016,04,09,08,38,10.70
2016,04,09,08,39,10.60
2016,04,09,08,40,10.50
2016,04,09,08,41,10.50
2016,04,09,08,42,10.50
2016,04,09,08,43,10.40
2016,04,09,08,44,10.30
2016,04,09,08,45,10.30
2016,04,09,08,46,10.30
2016,04,09,08,47,10.30
2016,04,09,08,48,10.30
2016,04,09,08,49,10.30
2016,04,09,08,50,10.30
2016,04,09,08,51,10.30
2016,04,09,08,52,10.30
2016,04,09,08,53,10.30
2016,04,09,08,54,10.30
2016,04,09,08,55,10.30
2016,04,09,08,56,10.30
2016,04,09,08,57,10.30
2016,04,09,08,58,10.30
2016,04,09,08,59,10.20
2016,04,09,09,00,10.20
2016,04,09,09,01,10.10
2016,04,09,09,02,10.00
2016,04,09,09,03,10.00
2016,04,09,09,04,9.80
2016,04,09,09,05,9.70
2016,04,09,09,06,9.40
2016,04,09,09,07,9.20
2016,04,09,09,08,9.00
2016,04,09,09,09,8.80
2016,04,09,09,10,8.70
2016,04,09,09,11,8.60
2016,04,09,09,12,8.40
2016,04,09,09,13,8.20
2016,04,09,09,14,8.10
2016,04,09,09,15,8.00
2016,04,09,09,16,7.90
2016,04,09,09,17,7.80
2016,04,09,09,18,7.80
2016,04,09,09,19,7.70
2016,04,09,09,20,7.70
2016,04,09,09,21,7.60
2016,04,09,09,22,7.60
2016,04,09,09,23,7.50
2016,04,09,09,24,7.50
2016,04,09,09,25,7.50
2016,04,09,09,26,7.50
2016,04,09,09,27,7.50
2016,04,09,09,28,7.50
2016,04,09,09,29,7.50
2016,04,09,09,30,7.50
2016,04,09,09,31,7.40
2016,04,09,09,32,7.40
2016,04,09,09,33,7.40
2016,04,09,09,34,7.40
2016,04,09,09,35,7.40
2016,04,09,09,36,7.40
2016,04,09,09,37,7.40
2016,04,09,09,38,7.30
2016,04,09,09,39,7.30
2016,04,09,09,40,7.30
2016,04,09,09,41,7.40
2016,04,09,09,42,7.40
2016,04,09,09,43,7.40
2016,04,09,09,44,7.50
2016,04,09,09,45,7.50
2016,04,09,09,46,7.50
2016,04,09,09,47,7.50
2016,04,09,09,48,7.50
2016,04,09,09,49,7.40
2016,04,09,09,50,7.40
2016,04,09,09,51,7.40
2016,04,09,09,52,7.40
2016,04,09,09,53,7.30
2016,04,09,09,54,7.40
2016,04,09,09,55,7.30
2016,04,09,09,56,7.30
2016,04,09,09,57,7.30
2016,04,09,09,58,7.30
2016,04,09,09,59,7.30
2016,04,09,10,00,7.30
2016,04,09,10,01,7.30
2016,04,09,10,02,7.30
2016,04,09,10,03,7.30
2016,04,09,10,04,7.30
2016,04,09,10,05,7.30
2016,04,09,10,06,7.30
2016,04,09,10,07,7.30
2016,04,09,10,08,7.20
2016,04,09,10,09,7.30
2016,04,09,10,10,7.30
2016,04,09,10,11,7.30
2016,04,09,10,12,7.30
2016,04,09,10,13,7.30
2016,04,09,10,14,7.40
2016,04,09,10,15,7.40
2016,04,09,10,16,7.40
2016,04,09,10,17,7.40
2016,04,09,10,18,7.40
2016,04,09,10,19,7.40
2016,04,09,10,20,7.40
2016,04,09,10,21,7.40
2016,04,09,10,22,7.40
2016,04,09,10,23,7.40
2016,04,09,10,24,7.40
2016,04,09,10,25,7.40
2016,04,09,10,26,7.40
2016,04,09,10,27,7.40
2016,04,09,10,28,7.50
2016,04,09,10,29,7.50
2016,04,09,10,30,7.50
2016,04,09,10,31,7.50
2016,04,09,10,32,7.50
2016,04,09,10,33,7.50
2016,04,09,10,34,7.50
2016,04,09,10,35,7.50
2016,04,09,10,36,7.60
2016,04,09,10,37,7.60
2016,04,09,10,38,7.60
2016,04,09,10,39,7.60
2016,04,09,10,40,7.60
2016,04,09,10,41,7.70
2016,04,09,10,42,7.70
2016,04,09,10,43,7.70
2016,04,09,10,44,7.60
2016,04,09,10,45,7.60
2016,04,09,10,46,7.60
2016,04,09,10,47,7.70
2016,04,09,10,48,7.70
2016,04,09,10,49,7.70
2016,04,09,10,50,7.80
2016,04,09,10,51,7.90
2016,04,09,10,52,7.90
2016,04,09,10,53,8.00
2016,04,09,10,54,8.00
2016,04,09,10,55,8.10
2016,04,09,10,56,8.00
2016,04,09,10,57,8.00
2016,04,09,10,58,7.90
2016,04,09,10,59,7.90
2016,04,09,11,00,7.80
2016,04,09,11,01,7.80
2016,04,09,11,02,7.80
2016,04,09,11,03,7.80
2016,04,09,11,04,7.90
2016,04,09,11,05,7.90
2016,04,09,11,06,7.90
2016,04,09,11,07,7.90
2016,04,09,11,08,7.90
2016,04,09,11,09,7.90
2016,04,09,11,10,8.00
2016,04,09,11,11,8.00
2016,04,09,11,12,8.10
2016,04,09,11,13,8.10
2016,04,09,11,14,8.10
2016,04,09,11,15,8.20
2016,04,09,11,16,8.20
2016,04,09,11,17,8.30
2016,04,09,11,18,8.30
2016,04,09,11,19,8.30
2016,04,09,11,20,8.30
2016,04,09,11,21,8.30
2016,04,09,11,22,8.30
2016,04,09,11,23,8.40
2016,04,09,11,24,8.40
2016,04,09,11,25,8.50
2016,04,09,11,26,8.60
2016,04,09,11,27,8.70
2016,04,09,11,28,8.80
2016,04,09,11,29,8.90
2016,04,09,11,30,8.90
2016,04,09,11,31,8.90
2016,04,09,11,32,8.90
2016,04,09,11,33,8.90
2016,04,09,11,34,9.00
2016,04,09,11,35,9.00
2016,04,09,11,36,9.10
2016,04,09,11,37,9.10
2016,04,09,11,38,9.10
2016,04,09,11,39,9.10
2016,04,09,11,40,9.20
2016,04,09,11,41,9.30
2016,04,09,11,42,9.40
2016,04,09,11,43,9.50
2016,04,09,11,44,9.70
2016,04,09,11,45,9.80
2016,04,09,11,46,9.90
2016,04,09,11,47,10.10
2016,04,09,11,48,10.30
2016,04,09,11,49,10.40
2016,04,09,11,50,10.40
2016,04,09,11,51,10.50
2016,04,09,11,52,10.50
2016,04,09,11,53,10.50
2016,04,09,11,54,10.50
2016,04,09,11,55,10.60
2016,04,09,11,56,10.60
2016,04,09,11,57,10.60
2016,04,09,11,58,10.70
2016,04,09,11,59,10.80
2016,04,09,12,00,10.80
2016,04,09,12,01,10.80
2016,04,09,12,02,10.80
2016,04,09,12,03,10.70
2016,04,09,12,04,10.70
2016,04,09,12,05,10.70
2016,04,09,12,06,10.80
2016,04,09,12,07,10.80
2016,04,09,12,08,10.80
2016,04,09,12,09,10.80
2016,04,09,12,10,10.80
2016,04,09,12,11,10.80
2016,04,09,12,12,10.90
2016,04,09,12,13,11.00
2016,04,09,12,14,11.00
2016,04,09,12,15,11.10
2016,04,09,12,16,11.20
2016,04,09,12,17,11.20
2016,04,09,12,18,11.20
2016,04,09,12,19,11.30
2016,04,09,12,20,11.30
2016,04,09,12,21,11.30
2016,04,09,12,22,11.30
2016,04,09,12,23,11.40
2016,04,09,12,24,11.40
2016,04,09,12,25,11.40
2016,04,09,12,26,11.40
2016,04,09,12,27,11.40
2016,04,09,12,28,11.50
2016,04,09,12,29,11.60
2016,04,09,12,30,11.70
2016,04,09,12,31,11.70
2016,04,09,12,32,11.70
2016,04,09,12,33,11.70
2016,04,09,12,34,11.70
2016,04,09,12,35,11.80
2016,04,09,12,36,11.80
2016,04,09,12,37,11.80
2016,04,09,12,38,11.80
2016,04,09,12,39,11.90
2016,04,09,12,40,11.90
2016,04,09,12,41,12.00
2016,04,09,12,42,12.00
2016,04,09,12,43,12.00
2016,04,09,12,44,12.00
2016,04,09,12,45,11.90
2016,04,09,12,46,11.90
2016,04,09,12,47,12.00
2016,04,09,12,48,12.10
2016,04,09,12,49,12.20
2016,04,09,12,50,12.20
2016,04,09,12,51,12.10
2016,04,09,12,52,12.10
2016,04,09,12,53,12.10
2016,04,09,12,54,12.10
2016,04,09,12,55,12.10
2016,04,09,12,56,12.10
2016,04,09,12,57,12.10
2016,04,09,12,58,12.10
2016,04,09,12,59,12.20
2016,04,09,13,00,12.20
2016,04,09,13,01,12.30
2016,04,09,13,02,12.30
2016,04,09,13,03,12.20
2016,04,09,13,04,12.10
2016,04,09,13,05,12.00
2016,04,09,13,06,12.00
2016,04,09,13,07,12.00
2016,04,09,13,08,12.10
2016,04,09,13,09,12.10
2016,04,09,13,10,12.10
2016,04,09,13,11,12.10
2016,04,09,13,12,12.00
2016,04,09,13,13,11.90
2016,04,09,13,14,11.90
2016,04,09,13,15,11.80
2016,04,09,13,16,11.80
2016,04,09,13,17,11.80
2016,04,09,13,18,11.70
2016,04,09,13,19,11.70
2016,04,09,13,20,11.70
2016,04,09,13,21,11.70
2016,04,09,13,22,11.70
2016,04,09,13,23,11.70
2016,04,09,13,24,11.70
2016,04,09,13,25,11.80
2016,04,09,13,26,11.80
2016,04,09,13,27,11.90
2016,04,09,13,28,11.90
2016,04,09,13,29,11.90
2016,04,09,13,30,11.90
2016,04,09,13,31,12.00
2016,04,09,13,32,12.00
2016,04,09,13,33,12.00
2016,04,09,13,34,12.10
2016,04,09,13,35,12.10
2016,04,09,13,36,12.20
2016,04,09,13,37,12.20
2016,04,09,13,38,12.20
2016,04,09,13,39,12.20
2016,04,09,13,40,12.20
2016,04,09,13,41,12.10
2016,04,09,13,42,12.10
2016,04,09,13,43,12.00
2016,04,09,13,44,12.00
2016,04,09,13,45,12.10
2016,04,09,13,46,12.10
2016,04,09,13,47,12.20
2016,04,09,13,48,12.20
2016,04,09,13,49,12.30
2016,04,09,13,50,12.30
2016,04,09,13,51,12.40
2016,04,09,13,52,12.50
2016,04,09,13,53,12.50
2016,04,09,13,54,12.60
2016,04,09,13,55,12.60
2016,04,09,13,56,12.60
2016,04,09,13,57,12.50
2016,04,09,13,58,12.40
2016,04,09,13,59,12.30
2016,04,09,14,00,12.20
2016,04,09,14,01,12.10
2016,04,09,14,02,12.10
2016,04,09,14,03,12.10
2016,04,09,14,04,12.00
2016,04,09,14,05,12.00
2016,04,09,14,06,11.90
2016,04,09,14,07,11.90
2016,04,09,14,08,11.90
2016,04,09,14,09,11.90
2016,04,09,14,10,11.90
2016,04,09,14,11,12.00
2016,04,09,14,12,12.00
2016,04,09,14,13,12.00
2016,04,09,14,14,12.10
2016,04,09,14,15,12.20
2016,04,09,14,16,12.20
2016,04,09,14,17,12.30
2016,04,09,14,18,12.30
2016,04,09,14,19,12.30
2016,04,09,14,20,12.40
2016,04,09,14,21,12.50
2016,04,09,14,22,12.50
2016,04,09,14,23,12.60
2016,04,09,14,24,12.70
2016,04,09,14,25,12.60
2016,04,09,14,26,12.50
2016,04,09,14,27,12.40
2016,04,09,14,28,12.40
2016,04,09,14,29,12.30
2016,04,09,14,30,12.30
2016,04,09,14,31,12.40
2016,04,09,14,32,12.40
2016,04,09,14,33,12.40
2016,04,09,14,34,12.50
2016,04,09,14,35,12.60
2016,04,09,14,36,12.60
2016,04,09,14,37,12.60
2016,04,09,14,38,12.70
2016,04,09,14,39,12.70
2016,04,09,14,40,12.70
2016,04,09,14,41,12.70
2016,04,09,14,42,12.70
2016,04,09,14,43,12.80
2016,04,09,14,44,12.80
2016,04,09,14,45,12.80
2016,04,09,14,46,12.80
2016,04,09,14,47,12.80
2016,04,09,14,48,12.70
2016,04,09,14,49,12.70
2016,04,09,14,50,12.70
2016,04,09,14,51,12.70
2016,04,09,14,52,12.70
2016,04,09,14,53,12.70
2016,04,09,14,54,12.60
2016,04,09,14,55,12.60
2016,04,09,14,56,12.60
2016,04,09,14,57,12.60
2016,04,09,14,58,12.60
2016,04,09,14,59,12.70
2016,04,09,15,00,12.70
2016,04,09,15,01,12.70
2016,04,09,15,02,12.70
2016,04,09,15,03,12.70
2016,04,09,15,04,12.70
2016,04,09,15,05,12.70
2016,04,09,15,06,12.70
2016,04,09,15,07,12.70
2016,04,09,15,08,12.80
2016,04,09,15,09,12.90
2016,04,09,15,10,13.00
2016,04,09,15,11,13.10
2016,04,09,15,12,13.10
2016,04,09,15,13,13.20
2016,04,09,15,14,13.20
2016,04,09,15,15,13.20
2016,04,09,15,16,13.30
2016,04,09,15,17,13.30
2016,04,09,15,18,13.30
2016,04,09,15,19,13.30
2016,04,09,15,20,13.40
2016,04,09,15,21,13.40
2016,04,09,15,22,13.50
2016,04,09,15,23,13.60
2016,04,09,15,24,13.60
2016,04,09,15,25,13.60
2016,04,09,15,26,13.60
2016,04,09,15,27,13.50
2016,04,09,15,28,13.50
2016,04,09,15,29,13.40
2016,04,09,15,30,13.40
2016,04,09,15,31,13.30
2016,04,09,15,32,13.30
2016,04,09,15,33,13.40
2016,04,09,15,34,13.40
2016,04,09,15,35,13.40
2016,04,09,15,36,13.40
2016,04,09,15,37,13.30
2016,04,09,15,38,13.30
2016,04,09,15,39,13.20
2016,04,09,15,40,13.20
2016,04,09,15,41,13.10
2016,04,09,15,42,13.10
2016,04,09,15,43,13.10
2016,04,09,15,44,13.10
2016,04,09,15,45,13.00
2016,04,09,15,46,13.00
2016,04,09,15,47,12.90
2016,04,09,15,48,13.00
2016,04,09,15,49,12.90
2016,04,09,15,50,13.00
2016,04,09,15,51,13.00
2016,04,09,15,52,13.00
2016,04,09,15,53,13.00
2016,04,09,15,54,13.00
2016,04,09,15,55,13.00
2016,04,09,15,56,13.00
2016,04,09,15,57,13.10
2016,04,09,15,58,13.00
2016,04,09,15,59,13.00
2016,04,09,16,00,13.00
2016,04,09,16,01,13.00
2016,04,09,16,02,13.00
2016,04,09,16,03,13.00
2016,04,09,16,04,13.00
2016,04,09,16,05,13.00
2016,04,09,16,06,12.90
2016,04,09,16,07,12.90
2016,04,09,16,08,12.90
2016,04,09,16,09,12.90
2016,04,09,16,10,12.90
2016,04,09,16,11,12.90
2016,04,09,16,12,12.90
2016,04,09,16,13,12.90
2016,04,09,16,14,12.90
2016,04,09,16,15,13.00
2016,04,09,16,16,13.00
2016,04,09,16,17,13.00
2016,04,09,16,18,13.00
2016,04,09,16,19,13.10
2016,04,09,16,20,13.10
2016,04,09,16,21,13.10
2016,04,09,16,22,13.10
2016,04,09,16,23,13.10
2016,04,09,16,24,13.00
2016,04,09,16,25,13.00
2016,04,09,16,26,13.00
2016,04,09,16,27,13.00
2016,04,09,16,28,13.00
2016,04,09,16,29,13.00
2016,04,09,16,30,13.00
2016,04,09,16,31,13.00
2016,04,09,16,32,13.00
2016,04,09,16,33,13.10
2016,04,09,16,34,13.10
2016,04,09,16,35,13.10
2016,04,09,16,36,13.10
2016,04,09,16,37,13.10
2016,04,09,16,38,13.00
2016,04,09,16,39,12.90
2016,04,09,16,40,12.90
2016,04,09,16,41,12.90
2016,04,09,16,42,12.90
2016,04,09,16,43,12.80
2016,04,09,16,44,12.80
2016,04,09,16,45,12.80
2016,04,09,16,46,12.80
2016,04,09,16,47,12.80
2016,04,09,16,48,12.80
2016,04,09,16,49,12.80
2016,04,09,16,50,12.90
2016,04,09,16,51,12.90
2016,04,09,16,52,12.90
2016,04,09,16,53,12.90
2016,04,09,16,54,12.90
2016,04,09,16,55,12.90
2016,04,09,16,56,12.90
2016,04,09,16,57,13.00
2016,04,09,16,58,13.00
2016,04,09,16,59,13.00
2016,04,09,17,00,12.90
2016,04,09,17,01,12.90
2016,04,09,17,02,12.90
2016,04,09,17,03,12.90
2016,04,09,17,04,12.90
2016,04,09,17,05,12.90
2016,04,09,17,06,12.90
2016,04,09,17,07,12.90
2016,04,09,17,08,12.90
2016,04,09,17,09,12.90
2016,04,09,17,10,13.00
2016,04,09,17,11,13.00
2016,04,09,17,12,13.00
2016,04,09,17,13,12.90
2016,04,09,17,14,12.90
2016,04,09,17,15,12.90
2016,04,09,17,16,12.80
2016,04,09,17,17,12.80
2016,04,09,17,18,12.80
2016,04,09,17,19,12.80
2016,04,09,17,20,12.80
2016,04,09,17,21,12.80
2016,04,09,17,22,12.90
2016,04,09,17,23,12.90
2016,04,09,17,24,12.90
2016,04,09,17,25,12.90
2016,04,09,17,26,12.90
2016,04,09,17,27,13.00
2016,04,09,17,28,12.90
2016,04,09,17,29,13.00
2016,04,09,17,30,13.00
2016,04,09,17,31,13.00
2016,04,09,17,32,13.00
2016,04,09,17,33,13.10
2016,04,09,17,34,13.10
2016,04,09,17,35,13.10
2016,04,09,17,36,13.10
2016,04,09,17,37,13.10
2016,04,09,17,38,13.10
2016,04,09,17,39,13.10
2016,04,09,17,40,13.10
2016,04,09,17,41,13.20
2016,04,09,17,42,13.20
2016,04,09,17,43,13.20
2016,04,09,17,44,13.20
2016,04,09,17,45,13.20
2016,04,09,17,46,13.20